Regional Weather Roundup
Issued by NWS

Home | Current Version | Previous Version | Text Only | Print | Product List | Glossary On
Versions: 1 2 3 4 5 6 7 8 9 10 11 12 13 14 15 16 17 18 19 20 21 22 23 24 25 26 27 28 29 30 31 32 33 34 35 36 37 38 39 40 41 42 43 44 45 46 47 48 49 50
000
ASUS43 KIND 300909
RWRIN

WEATHER ROUNDUP FOR INDIANA
NATIONAL WEATHER SERVICE INDIANAPOLIS IN
500 AM EDT SAT AUG 30 2014

NOTE: "FAIR" INDICATES FEW OR NO CLOUDS BELOW 12,000 FEET WITH NO
SIGNIFICANT WEATHER AND/OR OBSTRUCTIONS TO VISIBILITY.

* - STATION DOES NOT REPORT WEATHER SUCH AS PRECIPITATION OR FOG.

+ - STATION NOT QUALITY CONTROLLED BY THE NATIONAL WEATHER SERVICE.
    USE DATA WITH CAUTION...ESPECIALLY DEWPOINT AND RELATIVE
    HUMIDITY OBSERVATIONS.

INZ001>003-010>013-019-020-301000-
NORTHWEST INDIANA

CITY           SKY/WX    TMP DP  RH WIND       PRES   REMARKS
GARY /AIRPORT/ MOCLDY    77  69  77 S6        29.87R
KNOX *+        PTCLDY    71  66  84 S8        29.90S
LA PORTE +     PTCLDY    71  68  92 S5        29.90S
MICHIGAN CITY+ MOCLDY    72  64  78 S10       29.88S
MONTICELLO +   CLOUDY    73  67  84 S6        29.92S
RENSSELAER +   MOCLDY    72  70  94 S8        29.91S
VALPARAISO     PTCLDY    72  68  87 S9        29.90S

$$

LMZ046-743>745-301000-
SOUTHERN LAKE MICHIGAN

STATION/POSITION TIME  TEMP WIND        PRES
                       AIR  DIR/SP/G
                 (UTC) (F)  (DEG/KT/KT) (MB)
MICHIGAN CITY    0900   74  160/ 13/ 18   N/A

$$

INZ004-005-014>016-021>024-301000-
NORTH CENTRAL INDIANA

CITY           SKY/WX    TMP DP  RH WIND       PRES   REMARKS
GOSHEN         PTCLDY    75  66  73 S13       29.93S
LOGANSPORT +   CLOUDY    70  63  78 S7        29.95S
PERU/GRISSOM   MOCLDY    72  69  90 S9        29.95S
ROCHESTER +    PTCLDY    73  68  83 S9G16     29.94S
SOUTH BEND     PTCLDY    73  67  81 S10       29.90F
WARSAW +       CLEAR     72  66  83 S3        29.94S

$$

INZ006>009-017-018-025>027-301000-
NORTHEAST INDIANA

CITY           SKY/WX    TMP DP  RH WIND       PRES   REMARKS
ANGOLA *+      CLEAR     68  59  73 S3        29.96S
AUBURN +       CLEAR     70  63  78 CALM      29.97S
FORT WAYNE     PTCLDY    70  65  84 S9        29.97S
HUNTINGTON +   CLEAR     70  65  85 S5        29.96F

$$

INZ028-029-035-036-043>045-051>053-301000-
WEST CENTRAL INDIANA

CITY           SKY/WX    TMP DP  RH WIND       PRES   REMARKS
GREENCASTLE +  CLOUDY    70  66  88 S3        29.98S
LAFAYETTE      MOCLDY    72  67  84 S6        29.93R
TERRE HAUTE    MOCLDY    74  67  78 S8        29.96S

$$

INZ030>032-037>040-046>048-054>057-064-065-301000-
CENTRAL INDIANA

CITY           SKY/WX    TMP DP  RH WIND       PRES   REMARKS
CP ATTERBURY + MOCLDY    66  63  88 CALM      30.01R
FRANKFORT +    MOCLDY    73  66  78 S6        29.97R
GREENWOOD *+   MOCLDY    72  66  83 S7        30.00
INDIANAPOLIS   CLOUDY    72  64  76 S9        29.97S
-EAGLE CREEK   MOCLDY    72  63  73 S5        29.98R
KOKOMO *+      CLEAR     70  64  83 S8        29.96S
MARION +       CLEAR     69  62  80 S10       29.98S
MT COMFORT *+  CLEAR     68  66  94 S5        30.00S
SHELBYVILLE    CLEAR     71  62  73 S10       29.99S
ZIONSVILLE +   CLOUDY    72  64  74 S6        29.98S

$$

INZ033-034-041-042-049-050-058-059-301000-
EAST CENTRAL INDIANA

CITY           SKY/WX    TMP DP  RH WIND       PRES   REMARKS
MUNCIE         CLEAR     73  61  65 S9        29.99S

$$

INZ060-061-067>069-081>083-085>088-301000-
SOUTHWEST INDIANA

CITY           SKY/WX    TMP DP  RH WIND       PRES   REMARKS
EVANSVILLE     LGT RAIN  76  67  73 SW3       30.00R
WASHINGTON +   MOCLDY    72  68  87 S6        29.98S

$$

INZ062-063-066-070>080-084-089>092-301000-
SOUTH CENTRAL AND SOUTHEAST INDIANA

CITY           SKY/WX    TMP DP  RH WIND       PRES   REMARKS
BEDFORD +      PTCLDY    70  61  73 S6        30.01R
BLOOMINGTON    MOCLDY    74  63  68 S8        30.00R
NORTH VERNON + CLEAR     72  63  73 S7        30.02

$$




USA.gov is the U.S. government's official web portal to all federal, state and local government web resources and services.